Wind_Speed
4 4 5 2 2 3 9 11 12 7 5 6 6 5 4 6 9 4 6 5 6 6 5 5 5 5 6 8 9 9 9 10 10 10 10 9 10 9 8 7 6 5 4 4 3 3 4 5 6
4 4 5 6 11 19 14 10 6 7 8 2 2 6 2 3 7 8 12 8 5 8 8 7 6 6 7 9 9 10 11 11 11 11 11 11 11 11 10 9 8 7 7 6 6 6 5 6 7
4 5 5 6 9 10 13 9 7 3 8 3 2 5 9 7 8 10 10 11 11 10 10 10 9 8 8 8 9 10 11 11 12 13 13 13 13 13 12 12 11 10 8 8 8 8 8 7 8
4 5 9 14 17 14 10 8 7 4 4 3 2 0 7 7 8 11 14 10 13 12 7 8 10 11 10 10 11 11 12 13 13 14 14 15 15 15 15 15 14 14 13 12 11 11 10 10 10
5 6 9 19 14 13 8 7 7 4 2 3 6 2 2 3 7 10 9 9 8 8 5 8 9 10 11 12 11 13 14 14 15 16 16 15 15 16 17 17 16 15 15 15 15 15 13 13 13
6 9 10 17 14 12 6 6 4 4 2 3 5 3 1 4 6 9 9 13 16 20 21 19 17 13 13 15 14 15 15 16 16 16 16 17 17 17 17 17 18 18 18 18 18 18 17 16 15
8 12 15 16 13 10 4 1 4 8 4 4 4 6 8 8 8 10 13 16 20 21 21 21 17 15 16 16 17 17 18 18 17 18 18 18 19 20 20 20 20 20 20 20 20 20 20 19 18
13 8 12 9 5 4 4 5 3 9 10 8 6 9 10 12 14 16 18 20 22 23 21 21 20 20 18 19 19 19 20 21 21 22 23 22 23 23 23 23 23 23 23 23 23 23 23 22 21
11 6 9 5 2 3 4 5 2 7 8 10 12 12 13 14 16 19 21 22 24 24 24 22 26 24 26 26 25 24 24 25 27 27 27 28 28 28 27 28 28 27 26 26 27 27 26 25 25
6 5 4 3 3 4 6 7 7 9 12 13 15 16 17 19 21 24 25 25 25 26 26 28 25 30 32 34 31 31 31 31 31 32 33 34 35 35 34 34 32 30 31 30 29 29 29 28 27
5 4 3 1 1 4 4 8 7 9 14 17 18 19 21 23 25 22 23 24 27 30 32 34 34 36 36 34 34 34 34 35 37 39 40 40 41 41 42 41 39 35 34 33 31 29 30 28 28
6 5 4 3 5 9 8 7 10 9 10 12 16 18 21 22 23 25 26 27 29 33 35 35 35 37 39 38 38 38 39 39 38 38 41 43 44 46 48 48 46 44 41 38 35 33 30 33 34
5 6 5 2 5 10 10 9 11 9 11 14 18 21 23 26 27 27 29 32 35 38 40 41 41 41 41 41 42 41 40 41 41 39 39 42 42 43 45 47 49 49 49 47 42 40 39 35 36
7 4 4 6 11 13 13 13 7 9 16 19 21 25 28 27 30 32 34 36 40 42 44 44 42 41 38 35 35 33 33 33 35 34 34 36 39 42 44 43 43 44 48 49 48 43 41 40 38
5 4 6 8 14 15 14 10 2 6 16 20 25 28 29 33 37 39 41 44 46 46 42 37 32 30 31 31 32 34 37 39 39 41 40 39 38 41 43 44 44 44 44 46 48 45 45 42 39
2 5 9 12 14 17 20 1 4 14 18 19 24 28 34 36 36 39 43 45 43 43 41 37 35 36 37 36 35 39 42 46 51 55 55 54 52 50 48 47 47 48 46 45 44 47 47 45 41
2 8 9 9 16 16 20 23 21 26 18 18 23 26 28 27 27 26 26 28 29 29 34 36 37 39 42 44 47 51 56 58 60 60 59 59 58 55 54 58 54 51 50 48 46 45 47 47 45
13 18 16 19 22 22 27 18 12 14 18 20 20 20 19 21 22 18 16 18 21 27 32 37 42 46 46 50 54 58 59 55 52 50 49 50 45 44 46 48 49 49 51 51 49 48 45 47 46
17 16 18 24 17 31 17 16 12 6 9 15 18 18 17 16 17 18 23 27 30 32 39 44 46 49 47 43 43 37 35 36 37 37 38 37 37 36 39 40 45 45 46 48 50 50 48 45 45
19 17 27 18 28 22 12 7 1 6 10 11 13 15 17 20 24 27 30 33 39 44 45 47 46 40 34 32 32 32 31 32 35 36 29 32 33 34 34 36 37 38 41 41 45 48 48 47 43
24 25 27 31 31 8 8 3 6 4 6 6 9 15 21 27 32 36 41 43 40 40 39 36 30 26 25 28 30 32 35 38 38 37 36 32 31 29 30 30 34 34 35 39 39 42 46 46 45
24 27 31 30 22 3 8 4 4 3 7 9 16 22 27 31 34 39 40 39 41 40 39 39 32 28 26 27 31 32 36 41 43 41 40 38 38 34 30 30 31 33 34 34 38 38 41 46 46
23 28 27 14 13 7 2 2 8 11 10 18 21 23 24 29 31 33 36 37 36 37 39 40 35 32 31 33 36 36 37 38 41 43 43 41 40 39 35 29 30 32 33 35 36 38 40 41 44
29 33 7 13 5 2 2 18 3 5 8 18 20 24 31 37 39 38 36 34 33 33 35 38 35 33 35 36 37 39 39 36 34 36 40 42 41 36 31 30 28 30 32 34 37 37 38 40 41
23 32 10 4 4 5 10 17 6 1 15 26 32 34 39 36 34 33 33 34 30 35 34 34 35 36 36 37 39 40 40 38 37 38 39 40 34 30 30 28 27 28 29 32 35 38 37 39 40
20 23 6 5 4 15 28 8 8 7 29 38 43 45 51 53 52 47 34 36 35 35 30 31 37 38 39 39 40 41 40 39 39 39 35 34 32 31 30 28 28 27 27 28 31 35 36 38 39
13 15 9 9 13 9 6 2 8 19 36 48 49 59 62 52 39 38 31 29 38 34 32 35 41 43 41 40 42 43 40 38 38 37 32 31 30 31 30 29 29 28 28 28 29 32 34 36 38
13 11 11 9 5 6 7 15 17 40 44 55 63 58 48 44 40 41 37 32 36 36 36 38 40 41 42 43 41 41 40 38 36 37 35 35 35 34 33 32 31 30 29 29 29 30 32 34 36
5 20 11 11 9 3 4 4 28 32 50 49 52 48 55 47 40 36 34 35 35 34 36 37 39 42 43 42 42 42 41 39 40 38 36 38 39 39 37 33 31 30 30 29 30 30 31 33 34
9 13 19 6 7 19 22 20 24 49 43 42 51 49 47 42 36 32 35 35 35 37 40 43 43 44 44 44 45 48 49 52 50 46 44 44 47 44 39 34 32 31 28 30 29 31 32 31 33
Wind_Direction
131 143 161 151 71 50 94 91 125 110 35 32 8 22 321 356 11 4 341 348 359 352 354 349 334 315 295 287 288 289 292 300 302 303 305 309 314 314 318 314 311 312 301 300 287 284 285 291 298
132 134 131 104 97 100 85 86 93 87 84 56 42 94 152 352 359 338 330 322 309 308 311 315 314 307 294 284 280 279 280 281 288 288 291 297 297 300 303 303 302 299 299 301 300 296 293 295 299
151 143 140 110 82 109 99 92 89 91 159 169 47 321 13 35 360 336 333 314 304 295 300 306 311 310 303 296 293 288 282 280 284 285 286 283 284 287 290 290 287 287 289 289 289 287 288 289 292
138 150 104 107 102 113 127 111 146 180 155 239 286 100 64 41 14 337 329 325 316 324 318 292 296 290 287 293 289 286 287 288 287 286 283 284 285 285 284 285 284 280 282 284 281 279 282 286 291
135 147 93 123 119 123 138 136 144 233 216 231 264 272 278 278 292 320 323 333 330 323 313 317 295 290 289 283 278 280 282 285 286 285 282 280 280 280 283 284 283 280 279 282 280 279 276 277 281
157 119 123 132 132 137 150 166 196 258 336 314 294 281 233 204 280 303 293 300 303 303 297 303 299 296 290 283 280 276 274 274 276 275 278 280 280 280 280 280 282 278 274 275 275 276 275 276 277
149 123 132 142 146 154 153 203 233 220 234 289 308 266 191 207 246 266 274 284 290 289 289 296 300 284 279 284 283 286 282 278 269 266 264 266 270 275 276 276 274 271 270 271 272 273 272 274 275
156 139 133 151 172 220 269 298 263 252 260 251 277 262 236 238 249 266 276 280 281 283 284 285 287 287 287 284 280 277 275 274 275 274 274 270 268 268 268 268 270 271 273 273 270 269 269 269 270
153 132 144 156 208 263 293 295 259 264 262 264 270 277 273 268 273 279 277 277 278 278 282 284 285 281 284 286 281 276 273 272 273 272 272 271 271 272 272 271 269 266 265 266 270 270 267 266 266
154 142 155 180 255 259 269 270 225 252 260 274 282 286 283 288 287 287 281 278 275 272 268 267 274 278 277 282 277 276 273 270 269 268 269 269 270 271 270 269 266 266 267 263 261 262 265 262 262
118 106 114 120 282 316 300 283 264 243 253 270 280 284 282 280 281 278 275 271 266 266 269 270 267 270 271 272 272 272 270 270 270 270 270 269 269 268 267 267 266 268 265 262 258 257 257 256 259
87 69 56 77 85 3 331 288 296 289 285 272 269 271 273 275 279 281 280 279 278 278 276 274 272 271 272 273 271 269 269 269 270 271 270 269 267 265 265 265 265 264 260 260 259 257 253 251 254
88 96 84 94 13 22 12 320 311 314 292 292 288 287 285 285 287 290 290 288 286 286 282 280 279 276 276 277 277 277 275 273 270 270 270 271 269 269 268 267 266 263 261 261 258 257 256 254 252
124 78 57 352 355 357 355 342 323 335 302 298 295 292 291 291 294 291 289 289 289 289 288 289 289 289 288 289 287 286 284 282 281 279 277 275 275 273 271 268 267 268 262 257 258 257 255 253 248
129 27 5 339 335 335 338 334 347 276 288 293 297 295 294 292 289 287 290 291 291 293 295 292 290 289 288 291 293 294 298 298 294 290 285 280 279 278 276 274 268 264 264 264 259 254 252 251 252
79 5 346 332 334 323 337 227 246 317 289 279 275 278 279 280 280 284 286 290 292 293 294 298 301 304 304 301 298 301 303 304 304 303 297 291 286 281 278 276 274 268 264 260 260 256 250 249 248
359 328 333 342 332 311 316 303 289 286 273 279 273 270 272 278 281 284 284 288 298 310 318 318 312 308 306 307 309 310 312 310 308 304 298 294 289 285 281 278 275 269 263 261 257 254 254 247 245
346 341 337 344 322 319 322 320 315 288 266 268 260 260 264 273 282 291 302 312 319 320 319 319 319 318 313 310 308 310 309 307 302 296 292 288 288 284 278 273 271 266 258 256 255 253 249 250 246
350 337 337 338 323 326 330 336 321 294 269 239 239 244 256 268 289 300 304 307 309 310 312 312 311 316 316 311 307 304 302 296 295 297 292 289 290 286 281 273 266 265 260 251 250 251 249 245 246
347 344 339 344 328 335 338 338 248 215 233 237 247 257 272 283 288 293 301 309 311 315 319 321 320 314 303 297 313 319 317 313 308 301 296 302 288 281 278 275 272 270 263 257 250 247 247 243 242
350 345 341 328 325 305 338 199 263 231 223 242 277 308 313 317 320 324 324 324 325 327 324 321 313 308 308 308 312 312 315 313 309 309 305 301 302 293 279 273 269 269 267 260 253 250 247 242 236
347 342 338 323 317 236 304 196 224 269 276 300 320 327 329 328 329 328 328 329 331 326 325 326 319 317 315 317 315 314 313 314 312 307 304 306 305 301 300 278 268 268 267 261 252 249 248 245 235
338 348 330 321 297 259 26 258 198 242 276 321 335 342 339 336 338 332 329 325 322 318 317 318 316 318 320 320 319 317 315 310 304 298 300 300 301 296 294 287 268 265 265 263 256 248 247 245 243
336 344 324 304 305 195 189 355 292 293 351 343 346 336 333 332 330 326 323 319 309 312 316 317 312 312 318 317 317 317 317 315 307 302 301 302 299 294 292 290 273 265 265 264 260 251 245 242 242
343 2 345 339 346 250 277 323 153 37 353 342 334 327 333 336 331 323 318 318 310 312 316 319 314 313 315 314 315 314 314 312 308 304 305 305 303 300 296 289 280 272 264 264 264 259 246 241 237
353 7 40 296 304 289 307 196 163 313 332 332 332 334 332 329 324 322 314 314 308 311 302 301 305 314 314 314 313 311 310 308 307 305 305 301 301 299 297 291 284 276 272 267 266 263 251 241 237
347 8 354 287 283 292 288 77 241 274 295 306 323 328 329 328 326 320 316 308 314 302 299 303 308 312 313 313 310 307 308 307 305 304 301 298 298 296 294 293 291 282 275 271 269 264 253 243 236
353 7 335 334 315 299 315 328 326 326 329 326 327 329 336 333 325 328 329 322 315 316 307 304 307 308 310 310 308 307 307 304 301 299 293 292 297 294 292 291 287 283 281 276 272 262 249 243 237
302 359 13 318 270 295 304 312 315 325 329 331 331 328 329 334 333 332 331 329 321 317 318 315 311 311 311 311 309 308 305 302 299 296 294 292 291 292 289 288 289 286 281 275 270 262 249 243 238
312 7 337 322 305 298 292 302 323 328 327 329 332 331 337 336 338 333 334 329 323 326 321 317 317 316 315 315 314 312 308 306 302 291 285 286 283 284 285 283 284 279 278 278 275 264 252 242 236
Height
3174 3174 3174 3176 3180 3177 3176 3179 3177 3176 3174 3174 3174 3175 3176 3175 3175 3179 3177 3174 3174 3172 3172 3172 3171 3170 3170 3170 3169 3168 3167 3166 3166 3165 3164 3163 3162 3161 3160 3159 3158 3156 3155 3154 3153 3152 3152 3151 3150
3174 3175 3176 3177 3178 3176 3180 3180 3178 3177 3176 3174 3174 3175 3176 3176 3176 3176 3176 3175 3174 3172 3171 3171 3170 3169 3169 3168 3167 3166 3166 3165 3164 3163 3162 3161 3161 3160 3159 3158 3157 3156 3155 3154 3153 3152 3151 3150 3149
3174 3175 3177 3177 3177 3178 3179 3179 3178 3177 3178 3175 3174 3174 3173 3175 3175 3173 3174 3173 3172 3171 3169 3169 3169 3168 3167 3166 3165 3164 3163 3163 3161 3160 3159 3159 3158 3157 3156 3156 3155 3154 3153 3152 3152 3151 3150 3149 3148
3175 3176 3178 3178 3177 3179 3179 3179 3178 3176 3176 3176 3175 3175 3176 3174 3172 3170 3171 3171 3170 3169 3169 3168 3167 3166 3165 3165 3164 3162 3162 3160 3159 3158 3158 3157 3156 3155 3154 3154 3153 3152 3152 3151 3149 3149 3148 3147 3146
3174 3175 3176 3176 3177 3179 3179 3179 3178 3174 3174 3175 3175 3175 3174 3173 3171 3170 3170 3170 3168 3168 3166 3165 3164 3163 3162 3161 3160 3160 3159 3159 3157 3155 3155 3154 3153 3152 3151 3151 3150 3150 3149 3148 3147 3146 3145 3145 3144
3176 3176 3176 3177 3178 3179 3179 3179 3178 3175 3174 3174 3175 3174 3173 3171 3170 3170 3168 3169 3167 3167 3164 3164 3162 3161 3160 3158 3156 3154 3154 3153 3153 3152 3151 3151 3150 3149 3147 3147 3147 3146 3145 3145 3144 3144 3143 3143 3142
3176 3175 3175 3177 3178 3179 3179 3178 3178 3178 3175 3173 3174 3173 3172 3170 3168 3167 3166 3166 3164 3162 3161 3160 3159 3158 3156 3155 3154 3153 3151 3150 3148 3146 3146 3145 3145 3144 3144 3143 3142 3141 3141 3140 3140 3140 3140 3139 3139
3175 3176 3177 3178 3179 3179 3178 3178 3176 3175 3175 3173 3172 3171 3170 3169 3166 3165 3164 3162 3160 3158 3158 3156 3155 3154 3153 3152 3151 3149 3148 3146 3145 3144 3142 3141 3140 3139 3138 3138 3137 3136 3136 3136 3136 3136 3135 3135 3135
3174 3176 3177 3177 3178 3178 3177 3176 3176 3173 3173 3172 3171 3170 3169 3167 3166 3164 3161 3160 3157 3156 3154 3152 3150 3149 3147 3146 3145 3144 3143 3142 3140 3139 3138 3136 3135 3134 3134 3132 3131 3131 3130 3129 3129 3130 3130 3130 3129
3175 3176 3176 3177 3177 3176 3176 3176 3175 3173 3172 3170 3169 3167 3167 3167 3166 3163 3161 3158 3155 3152 3151 3150 3147 3144 3143 3140 3138 3136 3135 3134 3133 3131 3130 3129 3128 3128 3127 3126 3125 3125 3124 3123 3123 3123 3123 3123 3123
3176 3176 3176 3177 3177 3177 3176 3174 3173 3172 3171 3171 3170 3168 3166 3164 3161 3159 3158 3155 3153 3151 3148 3145 3145 3141 3138 3135 3132 3130 3128 3126 3125 3123 3122 3121 3121 3120 3117 3118 3118 3118 3118 3117 3116 3116 3116 3116 3117
3176 3176 3176 3177 3177 3176 3175 3173 3172 3171 3171 3169 3166 3165 3162 3160 3157 3155 3153 3151 3148 3146 3143 3141 3139 3135 3132 3130 3128 3125 3122 3119 3117 3115 3112 3111 3111 3110 3109 3108 3108 3108 3109 3110 3110 3110 3109 3110 3110
3176 3176 3176 3176 3176 3175 3173 3171 3170 3169 3167 3165 3162 3160 3158 3155 3153 3150 3146 3142 3139 3135 3132 3129 3128 3126 3124 3120 3117 3115 3113 3111 3108 3107 3105 3101 3100 3099 3098 3099 3099 3098 3097 3097 3100 3102 3103 3102 3102
3176 3176 3175 3175 3173 3173 3172 3171 3169 3169 3163 3161 3159 3156 3152 3150 3146 3142 3138 3135 3130 3126 3122 3119 3117 3116 3113 3111 3109 3107 3106 3104 3101 3099 3097 3094 3091 3090 3089 3089 3088 3087 3086 3086 3087 3090 3092 3094 3093
3176 3176 3175 3174 3173 3172 3171 3170 3167 3166 3161 3159 3155 3151 3147 3144 3139 3134 3130 3126 3121 3116 3113 3111 3110 3108 3106 3103 3101 3100 3097 3095 3093 3091 3089 3087 3083 3080 3079 3079 3079 3077 3077 3076 3077 3079 3081 3084 3085
3177 3177 3175 3174 3173 3170 3171 3169 3165 3162 3159 3154 3150 3147 3142 3137 3133 3128 3123 3117 3112 3110 3107 3106 3103 3100 3099 3097 3095 3092 3088 3085 3082 3079 3076 3074 3071 3069 3068 3068 3067 3067 3066 3066 3066 3067 3069 3072 3075
3179 3177 3175 3175 3173 3169 3169 3166 3162 3157 3152 3148 3144 3140 3135 3131 3125 3119 3113 3110 3106 3103 3101 3100 3097 3093 3089 3086 3083 3079 3076 3072 3069 3065 3062 3057 3055 3054 3052 3052 3053 3053 3054 3054 3054 3056 3056 3059 3063
3179 3176 3175 3173 3170 3167 3162 3160 3156 3152 3147 3142 3139 3135 3130 3125 3119 3116 3112 3109 3105 3101 3097 3093 3088 3084 3083 3080 3075 3071 3067 3062 3057 3053 3049 3045 3042 3039 3037 3036 3036 3037 3039 3041 3041 3042 3045 3047 3051
3179 3176 3174 3171 3167 3162 3157 3155 3150 3144 3141 3138 3135 3131 3129 3126 3122 3116 3112 3107 3103 3098 3093 3088 3083 3078 3072 3066 3062 3060 3055 3052 3047 3044 3039 3034 3031 3028 3026 3024 3023 3022 3023 3025 3028 3029 3031 3036 3039
3178 3174 3170 3166 3163 3158 3155 3150 3146 3144 3141 3139 3136 3130 3126 3121 3117 3113 3107 3103 3098 3092 3086 3080 3075 3071 3066 3060 3054 3050 3046 3042 3037 3033 3031 3026 3021 3019 3015 3013 3011 3010 3010 3012 3013 3015 3017 3023 3028
3174 3170 3165 3159 3154 3153 3153 3149 3146 3144 3139 3135 3132 3127 3122 3116 3111 3106 3101 3096 3090 3085 3079 3073 3068 3063 3057 3053 3050 3045 3038 3034 3030 3025 3020 3018 3013 3009 3006 3004 3001 2998 2997 3000 3001 3003 3005 3009 3015
3170 3167 3162 3155 3152 3150 3148 3147 3144 3143 3139 3132 3126 3121 3116 3112 3106 3100 3094 3089 3084 3078 3072 3065 3062 3057 3051 3047 3043 3038 3032 3025 3020 3015 3011 3007 3004 3001 2996 2994 2992 2989 2987 2988 2989 2992 2994 2995 3000
3169 3162 3154 3149 3144 3142 3144 3143 3137 3132 3129 3124 3122 3116 3111 3107 3102 3096 3091 3085 3079 3074 3067 3061 3057 3051 3044 3040 3035 3029 3024 3019 3012 3007 3002 2998 2994 2991 2987 2984 2981 2979 2978 2976 2978 2980 2983 2985 2988
3166 3160 3150 3146 3144 3143 3142 3142 3137 3132 3129 3124 3120 3113 3106 3101 3096 3091 3085 3079 3073 3069 3063 3057 3051 3044 3039 3033 3027 3021 3015 3009 3003 2998 2992 2987 2982 2978 2977 2974 2971 2970 2969 2967 2967 2968 2971 2974 2977
3160 3156 3149 3148 3145 3139 3135 3135 3130 3128 3124 3119 3115 3110 3103 3098 3092 3086 3080 3074 3067 3062 3057 3051 3045 3038 3031 3025 3019 3013 3007 3001 2994 2988 2983 2977 2972 2970 2968 2964 2962 2961 2960 2959 2958 2957 2959 2962 2966
3166 3164 3166 3164 3155 3141 3134 3129 3130 3126 3123 3117 3113 3105 3098 3092 3086 3079 3074 3069 3061 3056 3049 3043 3037 3030 3024 3017 3011 3005 2998 2991 2985 2979 2974 2969 2964 2961 2958 2955 2953 2952 2951 2951 2949 2948 2948 2951 2955
3167 3170 3169 3163 3152 3145 3132 3133 3130 3122 3116 3110 3108 3102 3094 3087 3079 3071 3065 3059 3053 3048 3042 3036 3029 3022 3016 3009 3002 2994 2988 2982 2975 2970 2965 2960 2956 2953 2950 2947 2944 2943 2942 2941 2940 2938 2938 2941 2945
3169 3167 3167 3167 3161 3153 3136 3136 3130 3122 3117 3111 3102 3094 3085 3077 3069 3064 3058 3050 3045 3039 3034 3028 3022 3014 3007 2999 2992 2984 2978 2973 2967 2960 2956 2952 2947 2944 2941 2938 2935 2933 2931 2930 2930 2930 2929 2930 2934
3167 3164 3166 3168 3163 3158 3147 3133 3131 3125 3117 3107 3099 3091 3082 3073 3064 3057 3051 3046 3039 3033 3026 3019 3013 3005 2996 2989 2981 2975 2968 2963 2956 2950 2945 2941 2936 2933 2930 2928 2925 2922 2921 2921 2920 2919 2919 2921 2925
3167 3166 3166 3163 3160 3159 3150 3135 3134 3126 3116 3106 3097 3087 3076 3068 3061 3054 3048 3040 3033 3026 3018 3010 3002 2994 2986 2978 2970 2963 2956 2949 2941 2936 2932 2928 2923 2921 2919 2917 2914 2912 2911 2909 2908 2908 2909 2912 2916